Flag for Brazil Weather past 2 weeks in Cuiabá, Mato Grosso, Brazil

Now
70 °F

Clear.


Feels Like: 70 °F
Forecast: 67 / 94 °F
Wind: 3 mph from South

Location: Cuiaba Aeroporto

Current Time: Aug 1, 2015 at 10:45:34 PM

Latest Report: Aug 1, 2015 at 10:00 PM


Visibility: 10 mi

Pressure: 29.92 "Hg

Humidity: 64%

Dew point: 57 °F

Location of CuiabáLocation

Historic Weather in Cuiabá — Graph

°F

Cuiabá temperature yesterday

Maximum temperature yesterday: 97 °F (at 2:00 PM)
Minimum temperature yesterday: 68 °F (at 5:00 AM)
Average temperature yesterday: 83 °F

Past Weeks' High & Low Weather Summary

 TemperatureHumidityPressure
High99 °F (Jul 29, 1:00 PM)94% (Jul 18, 5:00 AM)30.15 "Hg (Jul 18, 5:00 AM)
Low61 °F (Jul 23, 5:00 AM)16% (Jul 29, 1:00 PM)29.27 "Hg (Jul 18, 5:00 PM)
Average77 °F59%30.00 "Hg
* Reported Jul 17 10:00 PM — Aug 1 10:00 PM, Cuiabá, Weather by CustomWeather, © 2015

Note: Actual official high and low records may vary slightly from our data, if they occured in-between our weather recording intervals... More about our weather records

Advertising

Cuiabá weather history for previous 24 hours

 ConditionsComfort  
Time TempWeatherWind HumidityBarometerVisibility
10:00 PM
Sat, Aug 1
70 °FClear.3 mph64%29.92 "Hg10 mi
9:00 PM73 °FClear.2 mph57%29.92 "Hg10 mi
8:00 PM81 °FClear.5 mph32%29.92 "Hg10 mi
7:00 PM84 °FClear.2 mph27%29.89 "Hg10 mi
6:00 PM86 °FClear.3 mph22%29.89 "Hg10 mi
5:00 PM91 °FSunny.3 mph21%29.89 "Hg10 mi
4:00 PM93 °FSunny.5 mph17%29.89 "Hg10 mi
3:00 PM95 °FSunny.3 mph16%29.89 "Hg10 mi
2:00 PM95 °FSunny.7 mph19%29.92 "Hg10 mi
1:00 PM95 °FSunny.7 mph16%29.98 "Hg10 mi
12:00 PM95 °FSunny.7 mph18%30.01 "Hg10 mi
11:00 AM95 °FSunny.8 mph19%30.01 "Hg10 mi
10:00 AM90 °FSunny.3 mph31%30.04 "Hg10 mi
9:00 AM84 °FSunny.2 mph37%30.04 "Hg10 mi
8:00 AM75 °FSunny.5 mph50%30.04 "Hg10 mi
7:00 AM66 °FSunny.5 mph78%30.01 "Hg10 mi
6:00 AM68 °FClear.3 mph69%29.98 "Hg10 mi
5:00 AM68 °FClear.3 mph69%29.98 "Hg10 mi
4:00 AM66 °FClear.6 mph73%29.95 "Hg10 mi
3:00 AM66 °FClear.2 mph73%29.98 "Hg10 mi
2:00 AM68 °FClear.3 mph69%29.98 "Hg10 mi
1:00 AM70 °FClear.2 mph64%29.98 "Hg10 mi
12:00 AM70 °FClear.No wind60%29.98 "Hg10 mi
11:00 PM
Fri, Jul 31
73 °FClear.3 mph50%29.98 "Hg10 mi
10:00 PM77 °FClear.3 mph44%29.98 "Hg10 mi
Weather by CustomWeather, © 2015

See weather overviewHow to use our weather pages